GLD1620 SUMU-SBGR

Flight info

Callsign GLD1620
Flight time 2h 5m
Altitude 39000
Route MOLBI UM540 AKPOD UZ131 NIGBI UZ121 BUXUK MOLE1D
Aircraft A20N/M-SDE2E3FGHIRWXY/LB1

Departure

Time 2026-05-04 14:49
Airport Carrasco General Cesáreo L. Berisso International Airport (SUMU)

Arrival

Time 2026-05-04 16:55
Airport São Paulo/Guarulhos–Governor André Franco Montoro International Airport (SBGR)
Time Latitude Longitude Altitude Speed Heading
2026-05-04 14:24 -34.84038 -56.02335 83 ft 0 kts 179°
2026-05-04 14:40 -34.84035 -56.02335 82 ft 3 kts 175°
2026-05-04 14:41 -34.84025 -56.02342 84 ft 4 kts 152°
2026-05-04 14:41 -34.84011 -56.02352 87 ft 4 kts 243°
2026-05-04 14:41 -34.84004 -56.02289 87 ft 4 kts 260°
2026-05-04 14:42 -34.84003 -56.02249 85 ft 1 kts
2026-05-04 14:45 -34.83998 -56.02249 86 ft 5 kts
2026-05-04 14:45 -34.83955 -56.02293 86 ft 12 kts 278°
2026-05-04 14:46 -34.83947 -56.02414 82 ft 17 kts 272°
2026-05-04 14:46 -34.83946 -56.02567 82 ft 19 kts 269°
2026-05-04 14:46 -34.83982 -56.02727 84 ft 21 kts 245°
2026-05-04 14:46 -34.84012 -56.02887 82 ft 17 kts 270°
2026-05-04 14:47 -34.84012 -56.02956 82 ft 0 kts 270°
2026-05-04 14:48 -34.84011 -56.03037 82 ft 15 kts 275°
2026-05-04 14:48 -34.83915 -56.03081 85 ft 33 kts 358°
2026-05-04 14:48 -34.83358 -56.03095 86 ft 123 kts 358°
2026-05-04 14:49 -34.82307 -56.03121 331 ft 171 kts 358°
2026-05-04 14:49 -34.81011 -56.03144 849 ft 202 kts 358°
2026-05-04 14:49 -34.79573 -56.03146 1970 ft 204 kts 355°
2026-05-04 14:49 -34.78097 -56.03135 2953 ft 223 kts
2026-05-04 14:50 -34.76598 -56.02533 3564 ft 224 kts 28°
2026-05-04 14:50 -34.75428 -56.01216 3701 ft 249 kts 42°
2026-05-04 14:50 -34.74194 -55.99631 4329 ft 265 kts 42°
2026-05-04 14:50 -34.72901 -55.97975 4741 ft 277 kts 42°
2026-05-04 14:51 -34.71562 -55.96272 5777 ft 278 kts 42°
2026-05-04 14:51 -34.70221 -55.94576 6956 ft 279 kts 41°
2026-05-04 14:51 -34.68852 -55.92866 7876 ft 287 kts 41°
2026-05-04 14:51 -34.67435 -55.91103 8871 ft 294 kts 41°
2026-05-04 14:52 -34.65993 -55.89312 9850 ft 301 kts 41°
2026-05-04 14:52 -34.64495 -55.87451 10551 ft 318 kts 42°
2026-05-04 14:52 -34.62890 -55.85456 10911 ft 343 kts 42°
2026-05-04 14:52 -34.61175 -55.83320 11406 ft 361 kts 42°
2026-05-04 14:53 -34.59401 -55.81104 12220 ft 369 kts 42°
2026-05-04 14:53 -34.57667 -55.78939 13009 ft 376 kts 42°
2026-05-04 14:53 -34.55828 -55.76648 13819 ft 383 kts 42°
2026-05-04 14:53 -34.53978 -55.74345 14552 ft 389 kts 42°
2026-05-04 14:54 -34.52084 -55.71989 15327 ft 394 kts 41°
2026-05-04 14:54 -34.50131 -55.69563 16095 ft 399 kts 41°
2026-05-04 14:54 -34.48202 -55.67169 16840 ft 404 kts 41°
2026-05-04 14:54 -34.46233 -55.64728 17570 ft 409 kts 41°
2026-05-04 14:55 -34.44227 -55.62244 18294 ft 415 kts 40°
2026-05-04 14:55 -34.42192 -55.59726 18948 ft 419 kts 41°
2026-05-04 14:55 -34.40137 -55.57186 19589 ft 424 kts 41°
2026-05-04 14:55 -34.38061 -55.54620 20218 ft 429 kts 41°
2026-05-04 14:56 -34.35968 -55.52036 20840 ft 434 kts 41°
2026-05-04 14:56 -34.33788 -55.49486 21461 ft 436 kts 37°
2026-05-04 14:56 -34.31483 -55.47052 22086 ft 441 kts 37°
2026-05-04 14:56 -34.29176 -55.44609 22704 ft 445 kts 37°
2026-05-04 14:57 -34.26852 -55.42144 23284 ft 451 kts 37°
2026-05-04 14:57 -34.24489 -55.39635 23843 ft 455 kts 37°
2026-05-04 14:57 -34.22106 -55.37106 24378 ft 458 kts 37°
2026-05-04 14:57 -34.19713 -55.34568 24906 ft 462 kts 37°
2026-05-04 14:58 -34.17286 -55.31998 25401 ft 465 kts 37°
2026-05-04 14:58 -34.14846 -55.29416 25901 ft 469 kts 37°
2026-05-04 14:58 -34.12393 -55.26824 26374 ft 473 kts 37°
2026-05-04 14:58 -34.09896 -55.24186 26839 ft 476 kts 37°
2026-05-04 14:59 -34.07397 -55.21549 27306 ft 479 kts 37°
2026-05-04 14:59 -34.04879 -55.18894 27754 ft 483 kts 37°
2026-05-04 14:59 -33.99787 -55.13532 28600 ft 490 kts 37°
2026-05-04 15:00 -33.97234 -55.10847 29033 ft 493 kts 37°
2026-05-04 15:00 -33.94654 -55.08134 29438 ft 495 kts 37°
2026-05-04 15:00 -33.92050 -55.05399 29831 ft 498 kts 37°
2026-05-04 15:01 -33.86806 -54.99899 30595 ft 503 kts 37°
2026-05-04 15:01 -33.84118 -54.97082 30986 ft 505 kts 37°
2026-05-04 15:01 -33.81470 -54.94311 31404 ft 505 kts 37°
2026-05-04 15:01 -33.78823 -54.91541 31909 ft 503 kts 37°
2026-05-04 15:02 -33.76185 -54.88783 32382 ft 502 kts 37°
2026-05-04 15:02 -33.73553 -54.86034 32882 ft 500 kts 37°
2026-05-04 15:02 -33.70933 -54.83301 33363 ft 499 kts 36°
2026-05-04 15:02 -33.68351 -54.80609 33813 ft 497 kts 36°
2026-05-04 15:03 -33.65746 -54.77895 34245 ft 496 kts 36°
2026-05-04 15:03 -33.63131 -54.75175 34566 ft 496 kts 36°
2026-05-04 15:03 -33.60520 -54.72462 34859 ft 497 kts 36°
2026-05-04 15:03 -33.57908 -54.69749 35164 ft 497 kts 36°
2026-05-04 15:04 -33.55289 -54.67032 35449 ft 498 kts 36°
2026-05-04 15:04 -33.52668 -54.64313 35727 ft 499 kts 36°
2026-05-04 15:04 -33.50061 -54.61611 35997 ft 499 kts 36°
2026-05-04 15:04 -33.47376 -54.58832 36273 ft 500 kts 36°
2026-05-04 15:05 -33.44798 -54.56165 36528 ft 500 kts 36°
2026-05-04 15:05 -33.42152 -54.53430 36785 ft 501 kts 36°
2026-05-04 15:05 -33.39510 -54.50701 37035 ft 501 kts 36°
2026-05-04 15:05 -33.36869 -54.47977 37291 ft 502 kts 36°
2026-05-04 15:06 -33.34228 -54.45253 37538 ft 502 kts 36°
2026-05-04 15:06 -33.31577 -54.42522 37775 ft 502 kts 36°
2026-05-04 15:06 -33.28929 -54.39796 38026 ft 503 kts 36°
2026-05-04 15:07 -33.23630 -54.34349 38463 ft 503 kts 36°
2026-05-04 15:07 -33.20975 -54.31623 38677 ft 504 kts 36°
2026-05-04 15:07 -33.18315 -54.28894 38848 ft 504 kts 36°
2026-05-04 15:07 -33.15656 -54.26169 39011 ft 504 kts 36°
2026-05-04 15:08 -33.12996 -54.23444 39058 ft 504 kts 36°
2026-05-04 15:08 -33.07679 -54.18004 39059 ft 503 kts 36°
2026-05-04 15:09 -33.02328 -54.12540 39060 ft 503 kts 35°
2026-05-04 15:09 -32.97007 -54.07115 39060 ft 503 kts 35°
2026-05-04 15:10 -32.88989 -53.98956 39065 ft 503 kts 35°
2026-05-04 15:11 -32.80962 -53.90810 39071 ft 504 kts 35°
2026-05-04 15:11 -32.75621 -53.85400 39070 ft 504 kts 35°
2026-05-04 15:12 -32.70287 -53.80006 39074 ft 504 kts 35°
2026-05-04 15:12 -32.64944 -53.74612 39079 ft 504 kts 35°
2026-05-04 15:13 -32.59595 -53.69221 39078 ft 504 kts 34°
2026-05-04 15:13 -32.54248 -53.63840 39078 ft 504 kts 34°
2026-05-04 15:14 -32.48892 -53.58484 39081 ft 503 kts 32°
2026-05-04 15:14 -32.44145 -53.54624 39074 ft 494 kts 22°
2026-05-04 15:15 -32.37118 -53.50238 39072 ft 491 kts 20°
2026-05-04 15:15 -32.32045 -53.47085 39071 ft 492 kts 20°
2026-05-04 15:16 -32.22924 -53.41416 39074 ft 492 kts 20°
2026-05-04 15:17 -32.13865 -53.35801 39068 ft 492 kts 20°
2026-05-04 15:17 -32.04775 -53.30179 39071 ft 493 kts 20°
2026-05-04 15:18 -31.98685 -53.26419 39067 ft 493 kts 20°
2026-05-04 15:19 -31.89570 -53.20803 39069 ft 494 kts 20°
2026-05-04 15:19 -31.80429 -53.15183 39069 ft 494 kts 20°
2026-05-04 15:20 -31.74295 -53.11419 39071 ft 495 kts 20°
2026-05-04 15:20 -31.68188 -53.07678 39078 ft 495 kts 20°
2026-05-04 15:21 -31.62074 -53.03938 39076 ft 495 kts 20°
2026-05-04 15:22 -31.52911 -52.98340 39074 ft 495 kts 20°
2026-05-04 15:22 -31.43736 -52.92752 39077 ft 496 kts 20°
2026-05-04 15:23 -31.37651 -52.89052 39071 ft 497 kts 20°
2026-05-04 15:23 -31.31475 -52.85302 39072 ft 497 kts 20°
2026-05-04 15:24 -31.19187 -52.77848 39079 ft 498 kts 20°
2026-05-04 15:25 -31.13030 -52.74122 39079 ft 498 kts 20°
2026-05-04 15:26 -31.03790 -52.68537 39083 ft 499 kts 20°
2026-05-04 15:26 -30.94578 -52.62985 39083 ft 499 kts 20°
2026-05-04 15:27 -30.85269 -52.57385 39086 ft 499 kts 20°
2026-05-04 15:28 -30.76063 -52.51859 39078 ft 499 kts 20°
2026-05-04 15:29 -30.66795 -52.46309 39084 ft 500 kts 20°
2026-05-04 15:30 -30.45072 -52.33341 39085 ft 501 kts 20°
2026-05-04 15:31 -30.35749 -52.27923 39086 ft 496 kts 16°
2026-05-04 15:32 -30.19929 -52.19971 39087 ft 498 kts 16°
2026-05-04 15:34 -30.04044 -52.11986 39081 ft 499 kts 16°
2026-05-04 15:34 -29.94458 -52.07180 39080 ft 499 kts 16°
2026-05-04 15:35 -29.84902 -52.02403 39077 ft 499 kts 16°
2026-05-04 15:36 -29.75306 -51.97617 39079 ft 499 kts 16°
2026-05-04 15:36 -29.68951 -51.94451 39078 ft 499 kts 16°
2026-05-04 15:37 -29.62564 -51.91272 39082 ft 499 kts 17°
2026-05-04 15:37 -29.56191 -51.88108 39086 ft 499 kts 17°
2026-05-04 15:38 -29.49818 -51.84948 39089 ft 499 kts 17°
2026-05-04 15:38 -29.43389 -51.81764 39087 ft 499 kts 17°
2026-05-04 15:39 -29.37029 -51.78618 39087 ft 499 kts 17°
2026-05-04 15:40 -29.27523 -51.73726 39097 ft 504 kts 23°
2026-05-04 15:40 -29.21578 -51.69375 39097 ft 508 kts 28°
2026-05-04 15:41 -29.15696 -51.64915 39098 ft 507 kts 28°
2026-05-04 15:41 -29.09807 -51.60471 39100 ft 506 kts 28°
2026-05-04 15:42 -29.03930 -51.56048 39110 ft 507 kts 28°
2026-05-04 15:42 -28.98061 -51.51635 39113 ft 507 kts 28°
2026-05-04 15:43 -28.92204 -51.47237 39117 ft 505 kts 28°
2026-05-04 15:43 -28.86228 -51.42758 39113 ft 507 kts 28°
2026-05-04 15:44 -28.80335 -51.38345 39126 ft 506 kts 28°
2026-05-04 15:44 -28.74481 -51.33971 39133 ft 506 kts 28°
2026-05-04 15:45 -28.68606 -51.29584 39127 ft 506 kts 28°
2026-05-04 15:45 -28.62726 -51.25201 39131 ft 506 kts 28°
2026-05-04 15:46 -28.56821 -51.20805 39134 ft 506 kts 28°
2026-05-04 15:46 -28.50952 -51.16442 39142 ft 506 kts 28°
2026-05-04 15:47 -28.45477 -51.12377 39147 ft 507 kts 28°
2026-05-04 15:47 -28.39606 -51.08021 39139 ft 504 kts 28°
2026-05-04 15:48 -28.33751 -51.03686 39144 ft 504 kts 28°
2026-05-04 15:48 -28.25937 -50.97909 39149 ft 505 kts 28°
2026-05-04 15:49 -28.19883 -50.93438 39150 ft 505 kts 28°
2026-05-04 15:49 -28.13995 -50.89097 39148 ft 505 kts 28°
2026-05-04 15:50 -28.08104 -50.84758 39146 ft 505 kts 28°
2026-05-04 15:50 -28.02268 -50.80406 39152 ft 506 kts 31°
2026-05-04 15:51 -27.96588 -50.75674 39157 ft 508 kts 32°
2026-05-04 15:51 -27.90908 -50.70924 39157 ft 507 kts 32°
2026-05-04 15:52 -27.85135 -50.66166 39155 ft 507 kts 32°
2026-05-04 15:52 -27.79429 -50.61487 39162 ft 507 kts 32°
2026-05-04 15:53 -27.73712 -50.56805 39160 ft 507 kts 32°
2026-05-04 15:53 -27.67995 -50.52129 39165 ft 507 kts 32°
2026-05-04 15:54 -27.62245 -50.47433 39166 ft 508 kts 31°
2026-05-04 15:54 -27.56524 -50.42765 39169 ft 508 kts 31°
2026-05-04 15:55 -27.50835 -50.38130 39175 ft 508 kts 31°
2026-05-04 15:55 -27.45129 -50.33487 39178 ft 508 kts 31°
2026-05-04 15:56 -27.39344 -50.28789 39180 ft 508 kts 31°
2026-05-04 15:56 -27.33622 -50.24146 39178 ft 507 kts 31°
2026-05-04 15:57 -27.27984 -50.19576 39184 ft 507 kts 32°
2026-05-04 15:57 -27.22139 -50.14845 39185 ft 508 kts 31°
2026-05-04 15:58 -27.16360 -50.10176 39188 ft 508 kts 31°
2026-05-04 15:58 -27.10583 -50.05513 39188 ft 509 kts 31°
2026-05-04 15:59 -27.04882 -50.00918 39189 ft 509 kts 31°
2026-05-04 15:59 -26.99121 -49.96281 39186 ft 508 kts 31°
2026-05-04 16:00 -26.93355 -49.91645 39180 ft 508 kts 31°
2026-05-04 16:00 -26.87602 -49.87026 39181 ft 510 kts 31°
2026-05-04 16:01 -26.81820 -49.82390 39185 ft 511 kts 31°
2026-05-04 16:01 -26.76018 -49.77742 39184 ft 509 kts 31°
2026-05-04 16:02 -26.70255 -49.73123 39182 ft 510 kts 31°
2026-05-04 16:03 -26.61512 -49.66155 39191 ft 511 kts 31°
2026-05-04 16:03 -26.55747 -49.61559 39188 ft 511 kts 31°
2026-05-04 16:04 -26.49955 -49.56946 39168 ft 511 kts 31°
2026-05-04 16:04 -26.41295 -49.50061 39184 ft 512 kts 31°
2026-05-04 16:05 -26.36289 -49.46086 39182 ft 511 kts 31°
2026-05-04 16:06 -26.27541 -49.39150 39181 ft 512 kts 31°
2026-05-04 16:07 -26.15904 -49.29945 39186 ft 512 kts 30°
2026-05-04 16:08 -26.04081 -49.21496 39182 ft 509 kts 25°
2026-05-04 16:09 -25.88494 -49.11083 39187 ft 510 kts 25°
2026-05-04 16:10 -25.76106 -49.02833 39207 ft 510 kts 25°
2026-05-04 16:11 -25.64533 -48.95148 39220 ft 511 kts 25°
2026-05-04 16:12 -25.46139 -48.82981 39185 ft 509 kts 24°
2026-05-04 16:13 -25.33761 -48.75494 39177 ft 507 kts 22°
2026-05-04 16:14 -25.21362 -48.67981 39171 ft 505 kts 22°
2026-05-04 16:16 -25.05923 -48.58696 39171 ft 505 kts 22°
2026-05-04 16:17 -24.90552 -48.49434 39174 ft 504 kts 22°
2026-05-04 16:18 -24.79208 -48.42577 39176 ft 504 kts 22°
2026-05-04 16:19 -24.63900 -48.33359 39165 ft 502 kts 22°
2026-05-04 16:20 -24.48461 -48.24090 39174 ft 501 kts 21°
2026-05-04 16:22 -24.33131 -48.14914 39130 ft 500 kts 21°
2026-05-04 16:22 -24.23976 -48.09518 37372 ft 498 kts 21°
2026-05-04 16:23 -24.14974 -48.04215 35875 ft 482 kts 21°
2026-05-04 16:24 -24.03427 -47.97424 34083 ft 463 kts 21°
2026-05-04 16:25 -23.97779 -47.94123 33066 ft 457 kts 23°
2026-05-04 16:26 -23.86718 -47.87645 31132 ft 442 kts 24°
2026-05-04 16:26 -23.78676 -47.82937 29689 ft 433 kts 25°
2026-05-04 16:27 -23.73868 -47.78984 28696 ft 432 kts 41°
2026-05-04 16:28 -23.67454 -47.72191 27278 ft 421 kts 41°
2026-05-04 16:28 -23.61230 -47.65644 25934 ft 412 kts 41°
2026-05-04 16:29 -23.53116 -47.57120 24247 ft 400 kts 41°
2026-05-04 16:30 -23.47148 -47.50860 22922 ft 390 kts 41°
2026-05-04 16:31 -23.43297 -47.46822 22081 ft 383 kts 41°
2026-05-04 16:31 -23.37630 -47.40889 20817 ft 374 kts 41°
2026-05-04 16:32 -23.32095 -47.35098 19674 ft 365 kts 40°
2026-05-04 16:33 -23.28479 -47.31319 18920 ft 360 kts 40°
2026-05-04 16:33 -23.24992 -47.27679 18178 ft 354 kts 40°
2026-05-04 16:34 -23.21488 -47.24026 17363 ft 349 kts 40°
2026-05-04 16:34 -23.19704 -47.22168 16944 ft 346 kts 41°
2026-05-04 16:35 -23.14454 -47.16699 15764 ft 338 kts 43°
2026-05-04 16:35 -23.09724 -47.11136 14671 ft 331 kts 46°
2026-05-04 16:36 -23.08168 -47.09303 14302 ft 329 kts 46°
2026-05-04 16:36 -23.05071 -47.05656 13518 ft 323 kts 46°
2026-05-04 16:37 -23.02089 -47.02144 12773 ft 317 kts 46°
2026-05-04 16:37 -23.00601 -47.00392 12411 ft 314 kts 46°
2026-05-04 16:37 -22.98106 -46.97458 11761 ft 310 kts 46°
2026-05-04 16:38 -22.95213 -46.94057 11013 ft 305 kts 46°
2026-05-04 16:39 -22.90962 -46.89061 9939 ft 296 kts 45°
2026-05-04 16:39 -22.88717 -46.85413 9120 ft 296 kts 77°
2026-05-04 16:40 -22.89574 -46.81166 8238 ft 298 kts 128°
2026-05-04 16:40 -22.92830 -46.78478 7376 ft 296 kts 149°
2026-05-04 16:41 -22.96263 -46.76013 6587 ft 294 kts 144°
2026-05-04 16:41 -23.01099 -46.71976 6697 ft 293 kts 142°
2026-05-04 16:42 -23.05901 -46.67839 6699 ft 295 kts 142°
2026-05-04 16:43 -23.09074 -46.65109 6698 ft 295 kts 142°
2026-05-04 16:43 -23.11829 -46.62737 6704 ft 295 kts 142°
2026-05-04 16:43 -23.13524 -46.61280 6708 ft 295 kts 142°
2026-05-04 16:44 -23.20139 -46.55970 6723 ft 295 kts 162°
2026-05-04 16:45 -23.24007 -46.56412 6743 ft 283 kts 214°
2026-05-04 16:46 -23.28537 -46.60278 6607 ft 265 kts 220°
2026-05-04 16:46 -23.31497 -46.62531 6189 ft 257 kts 217°
2026-05-04 16:47 -23.34441 -46.64643 5771 ft 252 kts 216°
2026-05-04 16:47 -23.37411 -46.66762 5505 ft 260 kts 216°
2026-05-04 16:48 -23.41854 -46.69878 5033 ft 254 kts 207°
2026-05-04 16:48 -23.43540 -46.70260 5016 ft 243 kts 176°
2026-05-04 16:49 -23.46683 -46.69485 4847 ft 231 kts 163°
2026-05-04 16:49 -23.48418 -46.66952 4580 ft 204 kts 92°
2026-05-04 16:50 -23.48030 -46.64134 4072 ft 176 kts 72°
2026-05-04 16:50 -23.47426 -46.61875 3990 ft 134 kts 71°
2026-05-04 16:51 -23.46887 -46.59883 4018 ft 137 kts 71°
2026-05-04 16:51 -23.46617 -46.58879 3998 ft 137 kts 71°
2026-05-04 16:51 -23.46077 -46.56877 3991 ft 139 kts 71°
2026-05-04 16:52 -23.45544 -46.54888 3676 ft 136 kts 71°
2026-05-04 16:52 -23.45269 -46.53875 3508 ft 136 kts 72°
2026-05-04 16:53 -23.44757 -46.51968 3142 ft 130 kts 73°
2026-05-04 16:53 -23.43968 -46.49037 2553 ft 137 kts 73°
2026-05-04 16:54 -23.43706 -46.48072 2467 ft 129 kts 73°
2026-05-04 16:55 -23.43249 -46.46802 2464 ft 31 kts 43°
2026-05-04 16:55 -23.42915 -46.46773 2462 ft 12 kts 342°
2026-05-04 16:56 -23.42907 -46.46776 2461 ft 0 kts 342°
2026-05-04 16:57 -23.42845 -46.46845 2471 ft 7 kts 274°
2026-05-04 16:58 -23.42941 -46.47182 2481 ft 24 kts 255°
2026-05-04 16:58 -23.42990 -46.47369 2479 ft 27 kts 253°
2026-05-04 16:59 -23.43098 -46.47759 2483 ft 24 kts 253°
2026-05-04 17:00 -23.42990 -46.48138 2480 ft 10 kts 356°
2026-05-04 17:00 -23.42859 -46.48230 2477 ft 1 kts 296°
2026-05-04 17:01 -23.42858 -46.48233 2477 ft 0 kts 291°